Regional Weather Roundup
Issued by NWS Sioux Falls, SD

Home | Current Version | Previous Version | Text Only | Print | Product List | Glossary Off
Versions: 1 2 3 4 5 6 7 8 9 10 11 12 13 14 15 16 17 18 19 20 21 22 23 24 25 26 27 28 29 30 31 32 33 34 35 36 37 38 39 40 41 42 43 44 45 46 47 48 49 50

491
ASUS43 KFSD 290902
RWRFSD

WEATHER ROUNDUP FOR SE SOUTH DAKOTA/SW MINNESOTA/NW IOWA
NATIONAL WEATHER SERVICE SIOUX FALLS SD
400 AM CDT MON MAY 29 2017

NOTE: "FAIR" INDICATES FEW OR NO CLOUDS BELOW 12,000 FEET WITH NO
SIGNIFICANT WEATHER AND OR OBSTRUCTIONS TO VISIBILITY.


SDZ038>040-050-052>070-291000-
SOUTHEAST SOUTH DAKOTA

CITY           SKY/WX    TMP DP  RH WIND       PRES   REMARKS
BROOKINGS      CLEAR     50  44  80 NW13      29.88S
CHAMBERLAIN    NOT AVBL
HURON          CLEAR     49  43  80 NW14      29.93R
MADISON        FAIR      50  46  87 W12       29.91R
MITCHELL       CLEAR     51  45  79 NW8       29.95R
SIOUX FALLS    CLEAR     51  44  77 W5        29.89F
WINNER         FAIR      50  44  80 NW8       30.02R
YANKTON        MOCLDY    50  47  89 NW9       29.93R
$$

MNZ071-072-080-081-089-090-097-098-291000-
SOUTHWEST MINNESOTA

CITY           SKY/WX    TMP DP  RH WIND       PRES   REMARKS
FAIRMONT       CLEAR     54  44  69 W15       29.83S
JACKSON        CLEAR     52  43  71 W7        29.86S
MARSHALL       CLEAR     52  44  74 W16       29.85R
MONTEVIDEO     MOCLDY    52  45  76 NW8       29.82S
PIPESTONE      CLEAR     52  41  66 NW7       29.88S
REDWOOD FALLS  CLEAR     51  43  74 W12       29.81R
TRACY          CLEAR     52  46  78 W6        29.85S
WINDOM         CLEAR     50  45  81 W10       29.85S
WORTHINGTON    CLEAR     49  45  86 W10       29.88R
$$

IAZ001>003-012>014-020>022-031-032-NEZ013-014-SDZ071-291000-
NORTHWEST IOWA

CITY           SKY/WX    TMP DP  RH WIND       PRES   REMARKS
CHEROKEE       CLEAR     53  46  76 NW5       29.88S
DENISON        CLEAR     50  45  81 SE5       29.91R
ESTHERVILLE    CLEAR     50  46  86 NW12      29.84F
LE MARS        PTCLDY    52  45  76 NW7       29.91R
ORANGE CITY    PTCLDY    52  46  82 NW6       29.90S
SHELDON        PTCLDY    50  45  81 W8        29.87S
SIOUX CITY     CLEAR     50  45  83 NW6       29.90R
SPENCER        PTCLDY    52  47  83 W10       29.87F
STORM LAKE     PTCLDY    55  43  62 NW13      29.88R
$$

ABBREVIATIONS USED IN REMARKS
   TC - TEMPERATURE IN CELSIUS
  WCI - WIND CHILL INDEX
   HX - HEAT INDEX
  VSB - VISIBILITY





USA.gov is the U.S. government's official web portal to all federal, state and local government web resources and services.